Skip Navigation Links
NOAA logo - Click to go to the NOAA homepage
NOAA's National Weather Service
Alaska Aviation Weather Unit
  NWS logo - Click to go to the NWS homepage
Left Navbar Graphic     21 AKDT = 05 GMT

   
NOAA is celebrating 200 years of science, service, and stewardship. Visit the NOAA 200th celebration Web site to learn more.
USA.gov is the U.S. Government's official Web portal to all Federal, state and local government Web resources and services.
Facebook
NWS on Facebook

Important Change Regarding the AAWU Web Presence

 

Over the last several months, the AAWU has been working to navigate its webpages to a nationally supported server. Security, as well as other needs, have necessitated the change.  In the process, we have made an effort to enhance the functionality of our website, as well as some of our products. As of June 27, 2017, aawu.arh.noaa.gov will be discontinued. The new AAWU web address is weather.gov/aawu. It is now live and will run in-parallel with the old site until it is discontinued. Please send any feedback or questions regarding the new webpages to nws.ar.aawu.webauthors@noaa.gov.  Thank you for your patience during this time of transition.
AAWU Home :: Display TAF Add Bookmark
METAR PAOH 252356Z AUTO 00000KT 10SM FEW025 BKN070 OVC085 14/11
 A2997 RMK AO2 RAE49 SLP149 P0000 60008 T01390111 10144 20117
 58001=

METAR PAOH 260156Z AUTO 00000KT 10SM -RA FEW010 SCT045 OVC085 13/12
     A2997 RMK AO2 SLP148 P0001 T01330117=

METAR PAOH 260256Z AUTO 00000KT 10SM -RA OVC090 13/12 A2997 RMK AO2
     SLP148 P0001 60002 T01280117 56001=

METAR PAOH 260356Z AUTO 27003KT 10SM BKN060 OVC075 13/11 A2996 RMK AO2
     RAE15 SLP146 P0000 T01280111=

METAR PAOH 260456Z AUTO 00000KT 10SM FEW030 OVC060 13/12 A2996 RMK AO2
     SLP146 T01280117=


NOAA's National Weather Service
Alaska Aviation Weather Unit
6930 Sand Lake Road
Anchorage, AK 99502-1845
Disclaimer
Credits
Glossary
Privacy Policy
About Us
Career Opportunities
Contact AAWU Internet Services Site last modified: April, 17th 2012